N4XWC Weather Reports


time (UTC)temp
C
wind
direction
speed
KPH
gust
KPH
rain 1hr
cm
rain 24hr
cm
rain mn
cm
humidity
%
barometer
mb
20260505053445 16 241 0.0 1.6 0.00 0.00 0.00 65 1013.0
20260505053214 16 198 0.0 4.8 0.00 0.00 0.00 65 1013.0
20260505052943 16 219 1.6 1.6 0.00 0.00 0.00 64 1013.0
20260505052444 16 230 1.6 3.2 0.00 0.00 0.00 65 1013.0
20260505052214 16 246 1.6 3.2 0.00 0.00 0.00 65 1013.0
20260505051943 16 237 1.6 1.6 0.00 0.00 0.00 65 1013.0
20260505051445 16 224 1.6 1.6 0.00 0.00 0.00 65 1013.1
20260505051215 16 210 0.0 3.2 0.00 0.00 0.00 65 1013.1
20260505050943 16 224 1.6 1.6 0.00 0.00 0.00 64 1013.1
20260505050444 16 239 0.0 3.2 0.00 0.00 0.00 65 1013.1
20260505050214 16 233 0.0 3.2 0.00 0.00 0.00 65 1013.1
20260505041443 16 205 0.0 1.6 0.00 0.00 0.00 65 1013.2
20260505041213 16 202 4.8 4.8 0.00 0.00 0.00 65 1013.2
20260505040943 16 248 3.2 3.2 0.00 0.00 0.00 65 1013.2
20260505040444 16 209 0.0 1.6 0.00 0.00 0.00 65 1013.2
20260505040215 16 220 1.6 1.6 0.00 0.00 0.00 65 1013.2
20260505035944 16 223 1.6 1.6 0.00 0.00 0.00 65 1013.2
20260505035444 16 227 0.0 1.6 0.00 0.00 0.00 65 1013.2
20260505035214 16 205 0.0 4.8 0.00 0.00 0.00 65 1013.2
20260505034944 16 206 0.0 1.6 0.00 0.00 0.00 65 1013.2
20260505034444 17 244 0.0 1.6 0.00 0.00 0.00 65 1013.2
20260505034214 17 227 1.6 3.2 0.00 0.00 0.00 65 1013.2
20260505033943 17 178 0.0 0.0 0.00 0.00 0.00 65 1013.2
20260505033444 17 222 0.0 0.0 0.00 0.00 0.00 65 1013.2
20260505033213 17 206 0.0 4.8 0.00 0.00 0.00 65 1013.2
20260505032943 17 226 0.0 1.6 0.00 0.00 0.00 64 1013.2
20260505032445 17 226 0.0 1.6 0.00 0.00 0.00 64 1013.2
20260505032214 17 232 0.0 1.6 0.00 0.00 0.00 64 1013.2
20260505031944 17 206 0.0 0.0 0.00 0.00 0.00 64 1013.2
20260505031443 17 216 0.0 0.0 0.00 0.00 0.00 64 1013.3
20260505031213 17 216 0.0 0.0 0.00 0.00 0.00 64 1013.3
20260505030944 17 212 0.0 1.6 0.00 0.00 0.00 63 1013.3
20260505030444 17 206 0.0 3.2 0.00 0.00 0.00 63 1013.3
20260505030214 17 192 1.6 4.8 0.00 0.00 0.00 63 1013.3
20260505025944 17 160 0.0 4.8 0.00 0.00 0.00 63 1013.3
20260505025444 18 226 0.0 3.2 0.00 0.00 0.00 63 1013.3
20260505025214 18 203 1.6 3.2 0.00 0.00 0.00 63 1013.3
20260505024943 18 212 0.0 3.2 0.00 0.00 0.00 62 1013.3
20260505024443 18 209 1.6 3.2 0.00 0.00 0.00 62 1013.3
20260505024215 18 230 3.2 3.2 0.00 0.00 0.00 62 1013.3
20260505023944 18 229 1.6 1.6 0.00 0.00 0.00 62 1013.3
20260505023443 18 254 1.6 3.2 0.00 0.00 0.00 62 1013.3
20260505023214 18 239 1.6 1.6 0.00 0.00 0.00 62 1013.3
20260505022943 18 246 1.6 1.6 0.00 0.00 0.00 61 1013.2
20260505022444 18 232 0.0 4.8 0.00 0.00 0.00 61 1013.2
20260505022215 18 244 1.6 3.2 0.00 0.00 0.00 61 1013.2
20260505021945 18 239 1.6 1.6 0.00 0.00 0.00 61 1013.2
20260505021444 18 230 1.6 3.2 0.00 0.00 0.00 61 1013.1
20260505021214 18 200 0.0 1.6 0.00 0.00 0.00 60 1013.1
20260505020943 18 191 1.6 1.6 0.00 0.00 0.00 60 1013.1
20260505020444 18 219 0.0 3.2 0.00 0.00 0.00 60 1013.1
20260505020215 18 247 1.6 3.2 0.00 0.00 0.00 60 1013.1
20260505015943 18 230 3.2 3.2 0.00 0.00 0.00 60 1012.9
20260505015444 19 253 0.0 4.8 0.00 0.00 0.00 60 1012.9
20260505015214 19 257 0.0 4.8 0.00 0.00 0.00 60 1012.9
20260505014944 19 251 0.0 3.2 0.00 0.00 0.00 60 1012.9
20260505014443 19 202 0.0 4.8 0.00 0.00 0.00 60 1012.9
20260505014214 19 247 1.6 3.2 0.00 0.00 0.00 60 1012.9
20260505013944 19 233 0.0 1.6 0.00 0.00 0.00 59 1012.9
20260505013444 19 226 1.6 1.6 0.00 0.00 0.00 59 1012.9
20260505013213 19 251 1.6 3.2 0.00 0.00 0.00 59 1012.9
20260505012944 19 237 0.0 4.8 0.00 0.00 0.00 59 1012.8
20260505012444 19 247 0.0 1.6 0.00 0.00 0.00 59 1012.8
20260505012215 19 244 1.6 3.2 0.00 0.00 0.00 59 1012.8
20260505011944 19 258 1.6 1.6 0.00 0.00 0.00 58 1012.8
20260505011443 19 243 0.0 1.6 0.00 0.00 0.00 59 1012.8
20260505011214 19 251 1.6 1.6 0.00 0.00 0.00 59 1012.8
20260505010944 19 237 1.6 1.6 0.00 0.00 0.00 59 1012.8
20260505010443 20 232 1.6 3.2 0.00 0.00 0.00 58 1012.8
20260505010213 20 233 1.6 3.2 0.00 0.00 0.00 58 1012.8
20260505005945 20 239 0.0 1.6 0.00 0.00 0.00 58 1012.7
20260505005443 20 243 0.0 1.6 0.00 0.00 0.00 58 1012.7
20260505005214 20 226 4.8 4.8 0.00 0.00 0.00 58 1012.7
20260505004943 20 240 1.6 3.2 0.00 0.00 0.00 57 1012.7
20260505004445 20 236 1.6 3.2 0.00 0.00 0.00 57 1012.6
20260505004215 20 222 0.0 1.6 0.00 0.00 0.00 57 1012.6
20260505003944 20 219 0.0 1.6 0.00 0.00 0.00 57 1012.6
20260505003443 20 227 0.0 1.6 0.00 0.00 0.00 57 1012.6
20260505003214 20 232 0.0 0.0 0.00 0.00 0.00 57 1012.6
20260505002944 20 198 0.0 1.6 0.00 0.00 0.00 57 1012.3
20260505002444 21 216 0.0 6.4 0.00 0.00 0.00 58 1012.3
20260505002213 21 198 0.0 3.2 0.00 0.00 0.00 57 1012.3
20260505001945 21 220 0.0 1.6 0.00 0.00 0.00 56 1012.3
20260505001445 21 213 1.6 1.6 0.00 0.00 0.00 57 1012.3
20260505001214 21 220 1.6 1.6 0.00 0.00 0.00 56 1012.3
20260505000944 21 210 3.2 4.8 0.00 0.00 0.00 56 1012.3
20260505000443 21 206 0.0 0.0 0.00 0.00 0.00 55 1012.3
20260505000213 22 206 0.0 1.6 0.00 0.00 0.00 54 1012.3
20260504235943 22 199 0.0 1.6 0.00 0.00 0.00 54 1012.4
20260504235445 22 206 0.0 1.6 0.00 0.00 0.00 53 1012.4
20260504235214 22 209 0.0 3.2 0.00 0.00 0.00 53 1012.4
20260504234943 22 193 3.2 3.2 0.00 0.00 0.00 52 1012.4
20260504234443 22 206 4.8 4.8 0.00 0.00 0.00 51 1012.5
20260504234214 22 229 3.2 4.8 0.00 0.00 0.00 51 1012.5
20260504233944 22 220 0.0 1.6 0.00 0.00 0.00 51 1012.5
20260504233445 22 202 0.0 1.6 0.00 0.00 0.00 50 1012.5
20260504233215 22 243 3.2 4.8 0.00 0.00 0.00 50 1012.5
20260504232944 22 233 3.2 9.7 0.00 0.00 0.00 50 1012.6
20260504232443 22 208 0.0 0.0 0.00 0.00 0.00 50 1012.6
20260504232213 22 189 1.6 1.6 0.00 0.00 0.00 49 1012.6
20260504231944 22 198 4.8 4.8 0.00 0.00 0.00 49 1012.6
20260504231444 23 191 0.0 3.2 0.00 0.00 0.00 48 1012.8
20260504231215 23 181 0.0 3.2 0.00 0.00 0.00 48 1012.8
20260504230943 23 220 0.0 8.0 0.00 0.00 0.00 49 1012.8
20260504230443 23 229 1.6 3.2 0.00 0.00 0.00 47 1012.8
20260504230214 23 205 0.0 3.2 0.00 0.00 0.00 47 1012.8
20260504225944 23 189 8.0 16.1 0.00 0.00 0.00 47 1012.8
20260504225444 23 193 4.8 4.8 0.00 0.00 0.00 48 1012.8
20260504225214 23 263 4.8 4.8 0.00 0.00 0.00 48 1012.8
20260504224944 23 168 1.6 11.3 0.00 0.00 0.00 48 1012.8
20260504224443 23 206 1.6 4.8 0.00 0.00 0.00 49 1012.8
20260504224213 23 143 1.6 8.0 0.00 0.00 0.00 49 1012.8
20260504223945 23 164 3.2 9.7 0.00 0.00 0.00 50 1012.8
20260504223444 23 230 0.0 1.6 0.00 0.00 0.00 48 1012.8
20260504223215 23 220 0.0 1.6 0.00 0.00 0.00 48 1012.8
20260504222944 23 251 1.6 4.8 0.00 0.00 0.00 48 1012.9
20260504222443 23 251 1.6 1.6 0.00 0.00 0.00 47 1012.9
20260504222213 23 181 0.0 3.2 0.00 0.00 0.00 47 1012.9
20260504221945 23 240 3.2 11.3 0.00 0.00 0.00 47 1012.9
20260504221444 23 258 9.7 11.3 0.00 0.00 0.00 48 1013.1
20260504221215 23 206 1.6 9.7 0.00 0.00 0.00 48 1013.1
20260504220943 23 261 3.2 9.7 0.00 0.00 0.00 49 1013.1
20260504220444 23 232 6.4 8.0 0.00 0.00 0.00 49 1013.1
20260504220214 23 222 4.8 8.0 0.00 0.00 0.00 48 1013.1
20260504215943 23 246 1.6 3.2 0.00 0.00 0.00 49 1013.2
20260504215443 23 208 1.6 4.8 0.00 0.00 0.00 47 1013.2
20260504215214 23 251 3.2 8.0 0.00 0.00 0.00 47 1013.2
20260504214944 23 140 1.6 8.0 0.00 0.00 0.00 48 1013.2
20260504214445 23 199 4.8 11.3 0.00 0.00 0.00 47 1013.3
20260504214215 23 233 1.6 3.2 0.00 0.00 0.00 47 1013.3
20260504213944 23 261 0.0 3.2 0.00 0.00 0.00 48 1013.3
20260504213443 23 282 3.2 11.3 0.00 0.00 0.00 47 1013.3
20260504213214 23 239 4.8 14.5 0.00 0.00 0.00 46 1013.3
20260504212945 23 212 3.2 9.7 0.00 0.00 0.00 45 1013.4
20260504212443 23 268 19.3 19.3 0.00 0.00 0.00 46 1013.4
20260504212214 24 175 3.2 6.4 0.00 0.00 0.00 46 1013.4
20260504211944 24 280 9.7 16.1 0.00 0.00 0.00 45 1013.4
20260504211443 24 246 16.1 17.7 0.00 0.00 0.00 45 1013.3
20260504211215 24 256 4.8 9.7 0.00 0.00 0.00 45 1013.3
20260504210944 24 191 4.8 14.5 0.00 0.00 0.00 47 1013.3
20260504210443 24 210 0.0 3.2 0.00 0.00 0.00 45 1013.3
20260504210213 24 244 1.6 14.5 0.00 0.00 0.00 45 1013.3
20260504205943 24 256 3.2 16.1 0.00 0.00 0.00 46 1013.3
20260504205444 24 264 11.3 12.9 0.00 0.00 0.00 46 1013.3
20260504205215 24 227 3.2 3.2 0.00 0.00 0.00 46 1013.3
20260504204943 24 193 0.0 9.7 0.00 0.00 0.00 46 1013.3
20260504204444 24 224 3.2 3.2 0.00 0.00 0.00 48 1013.4
20260504204213 24 200 1.6 8.0 0.00 0.00 0.00 46 1013.4
20260504203943 24 246 3.2 14.5 0.00 0.00 0.00 47 1013.4
20260504203445 24 243 3.2 3.2 0.00 0.00 0.00 47 1013.4
20260504203214 24 284 4.8 4.8 0.00 0.00 0.00 47 1013.4
20260504202944 24 196 6.4 9.7 0.00 0.00 0.00 46 1013.6
20260504202444 24 213 1.6 4.8 0.00 0.00 0.00 47 1013.6
20260504202213 24 229 3.2 3.2 0.00 0.00 0.00 48 1013.6
20260504201945 24 223 3.2 8.0 0.00 0.00 0.00 47 1013.6
20260504201445 24 216 6.4 14.5 0.00 0.00 0.00 48 1013.6
20260504201215 24 184 1.6 1.6 0.00 0.00 0.00 49 1013.6
20260504200943 24 244 3.2 9.7 0.00 0.00 0.00 49 1013.6
20260504200443 24 206 0.0 6.4 0.00 0.00 0.00 49 1013.6
20260504200215 24 222 3.2 4.8 0.00 0.00 0.00 49 1013.6
20260504195943 24 212 1.6 6.4 0.00 0.00 0.00 49 1013.9
20260504195444 24 192 1.6 4.8 0.00 0.00 0.00 50 1013.9
20260504195214 24 213 3.2 4.8 0.00 0.00 0.00 51 1013.9
20260504194944 24 206 0.0 3.2 0.00 0.00 0.00 49 1013.9
20260504194444 24 206 4.8 4.8 0.00 0.00 0.00 48 1014.2
20260504194214 23 195 0.0 1.6 0.00 0.00 0.00 47 1014.2
20260504193945 23 208 0.0 1.6 0.00 0.00 0.00 49 1014.2
20260504193443 23 171 0.0 1.6 0.00 0.00 0.00 50 1014.2
20260504193216 23 215 0.0 3.2 0.00 0.00 0.00 51 1014.2
20260504192944 23 169 3.2 9.7 0.00 0.00 0.00 48 1014.4
20260504192444 23 165 3.2 6.4 0.00 0.00 0.00 50 1014.4
20260504192214 23 205 0.0 9.7 0.00 0.00 0.00 52 1014.4
20260504191946 23 240 4.8 9.7 0.00 0.00 0.00 52 1014.4
20260504191445 23 205 3.2 4.8 0.00 0.00 0.00 52 1014.7
20260504191214 23 270 0.0 6.4 0.00 0.00 0.00 52 1014.7
20260504190943 23 160 3.2 8.0 0.00 0.00 0.00 55 1014.7
20260504190446 23 148 0.0 1.6 0.00 0.00 0.00 52 1014.7
20260504190215 23 216 0.0 4.8 0.00 0.00 0.00 52 1014.7
20260504185944 23 215 1.6 3.2 0.00 0.00 0.00 52 1014.8
20260504185443 23 186 4.8 9.7 0.00 0.00 0.00 53 1014.8
20260504185214 23 208 4.8 4.8 0.00 0.00 0.00 53 1014.8
20260504184943 23 209 3.2 9.7 0.00 0.00 0.00 53 1014.8
20260504184444 23 198 0.0 8.0 0.00 0.00 0.00 52 1014.9
20260504184216 23 202 4.8 4.8 0.00 0.00 0.00 53 1014.9
20260504183943 23 216 0.0 1.6 0.00 0.00 0.00 55 1014.9
20260504183444 23 160 0.0 4.8 0.00 0.00 0.00 50 1014.9
20260504183213 23 193 4.8 6.4 0.00 0.00 0.00 54 1014.9
20260504182945 23 210 3.2 4.8 0.00 0.00 0.00 51 1015.2
20260504182443 23 270 1.6 8.0 0.00 0.00 0.00 52 1015.2
20260504182216 23 250 4.8 4.8 0.00 0.00 0.00 53 1015.2
20260504181944 23 302 3.2 8.0 0.00 0.00 0.00 54 1015.2
20260504181443 23 263 6.4 6.4 0.00 0.00 0.00 53 1015.3
20260504181214 23 205 8.0 9.7 0.00 0.00 0.00 54 1015.3
20260504180944 23 155 4.8 4.8 0.00 0.00 0.00 54 1015.3
20260504180443 23 193 3.2 6.4 0.00 0.00 0.00 54 1015.3
20260504180215 23 226 0.0 1.6 0.00 0.00 0.00 54 1015.3
20260504175944 23 236 3.2 4.8 0.00 0.00 0.00 53 1015.5
20260504175443 23 253 1.6 4.8 0.00 0.00 0.00 53 1015.5
20260504175216 23 274 9.7 9.7 0.00 0.00 0.00 53 1015.5
20260504174944 23 250 3.2 12.9 0.00 0.00 0.00 52 1015.5
20260504174443 23 241 0.0 0.0 0.00 0.00 0.00 52 1015.6
20260504174214 23 241 0.0 3.2 0.00 0.00 0.00 52 1015.6
20260504173943 23 241 1.6 1.6 0.00 0.00 0.00 52 1015.6
20260504173445 23 232 6.4 9.7 0.00 0.00 0.00 52 1015.6
20260504173215 23 212 1.6 3.2 0.00 0.00 0.00 52 1015.6
20260504172944 23 264 8.0 8.0 0.00 0.00 0.00 52 1015.7
20260504172444 23 209 8.0 11.3 0.00 0.00 0.00 53 1015.7
20260504172213 23 258 0.0 3.2 0.00 0.00 0.00 52 1015.7
20260504171944 23 256 0.0 4.8 0.00 0.00 0.00 51 1015.7
20260504171444 23 237 0.0 6.4 0.00 0.00 0.00 54 1015.9
20260504171213 23 282 3.2 8.0 0.00 0.00 0.00 53 1015.9
20260504170943 23 287 1.6 3.2 0.00 0.00 0.00 51 1015.9
20260504170444 23 192 0.0 6.4 0.00 0.00 0.00 53 1015.9
20260504170215 22 268 11.3 11.3 0.00 0.00 0.00 52 1015.9
20260504160445 21 237 3.2 8.0 0.00 0.00 0.00 53 1016.9
20260504160214 21 272 6.4 6.4 0.00 0.00 0.00 54 1016.9
20260504150943 19 247 3.2 3.2 0.00 0.00 0.00 59 1017.0
20260504150444 19 254 0.0 1.6 0.00 0.00 0.00 60 1017.0
20260504150214 19 223 1.6 4.8 0.00 0.00 0.00 61 1017.0
20260504141214 16 265 6.4 16.1 0.00 0.00 0.00 65 1017.4
20260504140944 16 199 3.2 8.0 0.00 0.00 0.00 65 1017.4
20260504140444 16 224 1.6 8.0 0.00 0.00 0.00 65 1017.4
20260504140213 16 219 3.2 9.7 0.00 0.00 0.00 65 1017.4
20260504130444 13 206 1.6 4.8 0.00 0.00 0.00 76 1017.8
20260504130218 13 210 0.0 3.2 0.00 0.00 0.00 77 1017.8
20260504120213 11 212 1.6 1.6 0.00 0.00 0.00 79 1017.3
20260504110444 10 179 0.0 1.6 0.00 0.00 0.00 82 1016.7
20260504110213 10 219 0.0 1.6 0.00 0.00 0.00 82 1016.7
20260504100443 9 198 0.0 1.6 0.00 0.00 0.00 89 1017.0
20260504100214 9 215 0.0 0.0 0.00 0.00 0.00 89 1017.0
20260504081945 12 243 1.6 1.6 0.00 0.00 0.00 70 1016.4
20260504081444 12 247 0.0 1.6 0.00 0.00 0.00 68 1016.5
20260504081216 12 234 0.0 1.6 0.00 0.00 0.00 68 1016.5
20260504080943 12 239 1.6 3.2 0.00 0.00 0.00 66 1016.5
20260504080443 12 217 1.6 1.6 0.00 0.00 0.00 65 1016.5
20260504080215 13 247 0.0 3.2 0.00 0.00 0.00 65 1016.5
20260504070214 12 223 3.2 4.8 0.00 0.00 0.00 66 1016.9
20260504060213 14 169 1.6 3.2 0.00 0.00 0.00 58 1017.4